Point Hope, AK

8:08 AM AKDT on August 21, 2017 (GMT -0800)
Point Hope

Weather History for PAPO - October, 2013

Change the Weather History Date:

Sunday, October 6, 2013

  Actual Average Record
Temperature  
Mean Temperature 35 °F -  
Max Temperature 37 °F 32 °F 43 °F (2016)
Min Temperature 33 °F 25 °F 23 °F (2000)
Degree Days  
Heating Degree Days 30    
Moisture  
Dew Point 33 °F    
Average Humidity 90    
Maximum Humidity 93    
Minimum Humidity 87    
Precipitation  
Precipitation 0.16 in - - ()
Sea Level Pressure  
Sea Level Pressure 29.46 in    
Wind  
Wind Speed 20 mph (East)    
Max Wind Speed 26 mph    
Max Gust Speed 31 mph    
Visibility 7 miles    
Events      
Averages and records for this station are not official NWS values.
T = Trace of Precipitation, MM = Missing Value Source: NWS Daily Summary

Daily Weather History Graph

Daily Weather History Graph

Search for Another Location

Airport or City:

Trip Planner

Search our weather history database for the weather conditions in past years. The results will help you decide how hot, cold, wet, or windy it might be!

Date:

Astronomy

Oct. 06, 2013 Rise Set
Actual Time 9:40 AM AKDT 8:07 PM AKDT
Civil Twilight 8:44 AM AKDT 9:04 PM AKDT
Nautical Twilight 7:38 AM AKDT 10:09 PM AKDT
Astronomical Twilight 6:25 AM AKDT 11:21 PM AKDT
Moon 1:00 PM AKDT (10/6) 7:48 PM AKDT (10/6)
Length of Visible Light 12h 19m
Length of Day
10h 26m
Waxing Crescent, 4% of the Moon is Illuminated
Oct 6
Waxing Crescent
Oct 11
First Quarter
Oct 18
Full
Oct 26
Last Quarter
Nov 3
New

Hourly Weather History & Observations

Time (AKDT) Temp. Windchill Dew Point Humidity Pressure Visibility Wind Dir Wind Speed Gust Speed Precip Events Conditions
12:16 AM 37.4 °F 25.9 °F 33.8 °F 87% 29.35 in 7.0 mi ESE 25.3 mph - N/A   Overcast
12:36 AM 37.4 °F 26.1 °F 33.8 °F 87% 29.35 in 7.0 mi ESE 24.2 mph - N/A   Overcast
12:56 AM 37.4 °F 25.9 °F 33.8 °F 87% 29.35 in 7.0 mi ESE 25.3 mph - N/A   Overcast
1:16 AM 37.4 °F 25.6 °F 33.8 °F 87% 29.35 in 8.0 mi ESE 26.5 mph 29.9 mph N/A   Overcast
1:36 AM 37.4 °F 26.1 °F 33.8 °F 87% 29.36 in 7.0 mi ESE 24.2 mph - N/A   Overcast
1:56 AM 37.4 °F 25.9 °F 33.8 °F 87% 29.36 in 7.0 mi ESE 25.3 mph 31.1 mph N/A   Overcast
2:16 AM 37.4 °F 25.6 °F 33.8 °F 87% 29.36 in 7.0 mi ESE 26.5 mph - N/A   Overcast
2:36 AM 37.4 °F 25.6 °F 33.8 °F 87% 29.36 in 7.0 mi ESE 26.5 mph - N/A   Overcast
2:56 AM 37.4 °F 25.9 °F 33.8 °F 87% 29.36 in 7.0 mi ESE 25.3 mph 29.9 mph N/A   Overcast
3:16 AM 37.4 °F 25.6 °F 33.8 °F 87% 29.36 in 9.0 mi ESE 26.5 mph 29.9 mph N/A   Overcast
3:36 AM 37.4 °F 25.9 °F 33.8 °F 87% 29.36 in 10.0 mi ESE 25.3 mph 29.9 mph N/A   Overcast
3:56 AM 37.4 °F 25.6 °F 33.8 °F 87% 29.36 in 9.0 mi ESE 26.5 mph - N/A   Overcast
4:16 AM 37.4 °F 26.6 °F 33.8 °F 87% 29.36 in 8.0 mi ESE 21.9 mph - N/A   Overcast
4:36 AM 37.4 °F 26.6 °F 33.8 °F 87% 29.36 in 9.0 mi ESE 21.9 mph 28.8 mph N/A   Overcast
4:56 AM 37.4 °F 26.6 °F 33.8 °F 87% 29.36 in 10.0 mi ESE 21.9 mph 27.6 mph N/A   Overcast
5:16 AM 37.4 °F 25.9 °F 33.8 °F 87% 29.36 in 9.0 mi ESE 25.3 mph - N/A   Overcast
5:36 AM 37.4 °F 26.6 °F 33.8 °F 87% 29.36 in 10.0 mi ESE 21.9 mph - N/A   Overcast
5:56 AM 37.4 °F 27.5 °F 33.8 °F 87% 29.36 in 8.0 mi East 18.4 mph - N/A   Overcast
6:16 AM 35.6 °F 25.9 °F 33.8 °F 93% 29.36 in 3.0 mi East 16.1 mph - N/A   Overcast
6:36 AM 35.6 °F 25.2 °F 33.8 °F 93% 29.37 in 5.0 mi East 18.4 mph - N/A   Overcast
6:56 AM 35.6 °F 25.9 °F 33.8 °F 93% 29.37 in 5.0 mi East 16.1 mph - N/A   Overcast
7:16 AM 35.6 °F 25.5 °F 33.8 °F 93% 29.38 in 3.0 mi East 17.3 mph - N/A   Overcast
7:36 AM 35.6 °F 26.2 °F 32.0 °F 87% 29.38 in 3.0 mi East 15.0 mph - N/A   Overcast
7:56 AM 35.6 °F 26.6 °F 32.0 °F 87% 29.38 in 3.0 mi ENE 13.8 mph - N/A   Overcast
8:16 AM 35.6 °F 25.9 °F 32.0 °F 87% 29.39 in 5.0 mi East 16.1 mph - N/A   Overcast
8:36 AM 35.6 °F 25.9 °F 32.0 °F 87% 29.39 in 4.0 mi East 16.1 mph - N/A   Overcast
8:56 AM 35.6 °F 26.2 °F 32.0 °F 87% 29.39 in 6.0 mi ENE 15.0 mph - N/A   Overcast
9:16 AM 35.6 °F 25.9 °F 32.0 °F 87% 29.40 in 7.0 mi East 16.1 mph - N/A   Overcast
9:36 AM 35.6 °F 25.9 °F 32.0 °F 87% 29.40 in 7.0 mi East 16.1 mph - N/A   Overcast
9:56 AM 35.6 °F 25.5 °F 33.8 °F 93% 29.41 in 4.0 mi East 17.3 mph - N/A   Overcast
10:16 AM 35.6 °F 25.2 °F 33.8 °F 93% 29.41 in 4.0 mi East 18.4 mph - N/A   Overcast
10:36 AM 35.6 °F 25.5 °F 32.0 °F 87% 29.42 in 5.0 mi East 17.3 mph - N/A   Overcast
10:56 AM 35.6 °F 25.5 °F 32.0 °F 87% 29.42 in 5.0 mi East 17.3 mph - 0.01 in   Overcast
11:16 AM 33.8 °F 23.2 °F 32.0 °F 93% 29.43 in 7.0 mi East 17.3 mph - N/A   Overcast
11:36 AM 35.6 °F 25.9 °F 32.0 °F 87% 29.43 in 10.0 mi East 16.1 mph - N/A   Overcast
11:56 AM 33.8 °F 23.2 °F 32.0 °F 93% 29.44 in 10.0 mi East 17.3 mph - N/A   Overcast
12:16 PM 35.6 °F 25.5 °F 32.0 °F 87% 29.45 in 10.0 mi East 17.3 mph - N/A   Overcast
12:36 PM 33.8 °F 22.8 °F 32.0 °F 93% 29.45 in 9.0 mi East 18.4 mph - 0.01 in   Overcast
12:56 PM 33.8 °F 23.5 °F 32.0 °F 93% 29.46 in 10.0 mi East 16.1 mph - 0.02 in   Overcast
1:16 PM 33.8 °F 23.5 °F 32.0 °F 93% 29.46 in 10.0 mi East 16.1 mph - N/A   Overcast
1:36 PM 35.6 °F 25.9 °F 32.0 °F 87% 29.47 in 10.0 mi East 16.1 mph - 0.01 in   Overcast
1:56 PM 35.6 °F 25.9 °F 33.8 °F 93% 29.47 in 9.0 mi East 16.1 mph - 0.01 in   Overcast
2:16 PM 35.6 °F 25.9 °F 33.8 °F 93% 29.48 in 10.0 mi East 16.1 mph - N/A   Overcast
2:36 PM 35.6 °F 25.5 °F 33.8 °F 93% 29.49 in 4.0 mi East 17.3 mph - 0.01 in   Overcast
2:56 PM 35.6 °F 26.6 °F 33.8 °F 93% 29.49 in 4.0 mi East 13.8 mph - 0.02 in   Overcast
3:16 PM 35.6 °F 27.1 °F 33.8 °F 93% 29.50 in 8.0 mi East 12.7 mph - N/A   Overcast
3:36 PM 35.6 °F 26.2 °F 33.8 °F 93% 29.50 in 8.0 mi East 15.0 mph - 0.01 in   Overcast
3:56 PM 35.6 °F 26.6 °F 33.8 °F 93% 29.51 in 5.0 mi East 13.8 mph - 0.02 in   Overcast
4:16 PM 35.6 °F 26.2 °F 33.8 °F 93% 29.51 in 3.0 mi East 15.0 mph - N/A   Overcast
4:36 PM 35.6 °F 26.2 °F 33.8 °F 93% 29.52 in 4.0 mi East 15.0 mph - 0.01 in   Overcast
4:56 PM 35.6 °F 26.6 °F 33.8 °F 93% 29.52 in 8.0 mi East 13.8 mph - 0.02 in   Overcast
5:16 PM 35.6 °F 27.5 °F 33.8 °F 93% 29.52 in 5.0 mi East 11.5 mph - 0.01 in   Overcast
5:36 PM 35.6 °F 26.6 °F 33.8 °F 93% 29.53 in 7.0 mi East 13.8 mph - 0.01 in   Overcast
5:56 PM 35.6 °F 26.6 °F 33.8 °F 93% 29.53 in 6.0 mi East 13.8 mph - 0.02 in   Overcast
6:16 PM 35.6 °F 27.1 °F 33.8 °F 93% 29.54 in 5.0 mi East 12.7 mph - 0.01 in   Overcast
6:36 PM 35.6 °F 28.6 °F 33.8 °F 93% 29.55 in 7.0 mi East 9.2 mph - 0.01 in   Overcast
6:56 PM 35.6 °F 28.0 °F 33.8 °F 93% 29.55 in 8.0 mi East 10.4 mph - 0.01 in   Overcast
7:16 PM 35.6 °F 28.6 °F 33.8 °F 93% 29.56 in 6.0 mi East 9.2 mph - 0.01 in   Overcast
7:36 PM 35.6 °F 29.2 °F 33.8 °F 93% 29.56 in 7.0 mi ENE 8.1 mph - 0.02 in   Overcast
7:56 PM 35.6 °F 27.5 °F 33.8 °F 93% 29.57 in 10.0 mi ENE 11.5 mph - 0.02 in   Overcast
8:16 PM 35.6 °F 27.5 °F 33.8 °F 93% 29.58 in 10.0 mi ENE 11.5 mph - 0.01 in   Overcast
8:36 PM 35.6 °F 27.1 °F 33.8 °F 93% 29.58 in 10.0 mi East 12.7 mph - 0.01 in   Overcast
8:56 PM 35.6 °F 27.1 °F 33.8 °F 93% 29.59 in 10.0 mi ENE 12.7 mph - 0.01 in   Overcast
9:16 PM 35.6 °F 27.1 °F 33.8 °F 93% 29.59 in 10.0 mi ENE 12.7 mph - N/A   Overcast
9:36 PM 35.6 °F 27.1 °F 33.8 °F 93% 29.60 in 10.0 mi East 12.7 mph - N/A   Overcast
9:56 PM 35.6 °F 27.5 °F 32.0 °F 87% 29.60 in 10.0 mi East 11.5 mph - N/A   Overcast
10:16 PM 35.6 °F 26.6 °F 32.0 °F 87% 29.61 in 10.0 mi East 13.8 mph - N/A   Overcast
10:36 PM 35.6 °F 27.5 °F 32.0 °F 87% 29.62 in 10.0 mi ENE 11.5 mph - N/A   Overcast
10:56 PM 33.8 °F 26.4 °F 32.0 °F 93% 29.62 in 10.0 mi ENE 9.2 mph - N/A   Overcast
11:16 PM 33.8 °F 27.7 °F 30.2 °F 87% 29.63 in 10.0 mi NE 6.9 mph - N/A   Overcast
11:36 PM 33.8 °F 25.8 °F 30.2 °F 87% 29.63 in 10.0 mi ENE 10.4 mph - N/A   Overcast
11:56 PM 33.8 °F 25.8 °F 30.2 °F 87% 29.64 in 10.0 mi ENE 10.4 mph - N/A   Overcast